This is the latest recevied weather packets stored in our database for station/object IK2ILW-6. If no packets are shown the sender has not sent any weather packets the latest 1 day(s).
| Time | Temp. | Humidity | Pressure | Rain* | Wind** | Luminosity | Snow |
|---|---|---|---|---|---|---|---|
| 1778075792 | 3.89° C | 97% | 1009.9 hPa | 3.05 mm | - | 366 W/m² | - |
| 1778075496 | 3.89° C | 97% | 1009.9 hPa | 3.05 mm | - | 316 W/m² | - |
| 1778075185 | 3.89° C | 97% | 1009.9 hPa | 3.05 mm | - | 330 W/m² | - |
| 1778074592 | 3.89° C | 97% | 1010 hPa | 3.05 mm | - | 237 W/m² | - |
| 1778073096 | 3.33° C | 97% | 1010.1 hPa | 3.05 mm | - | 190 W/m² | - |
| 1778069482 | 3.89° C | 97% | 1009.8 hPa | 0 mm | - | 135 W/m² | - |
| 1778068596 | 4.44° C | 97% | 1009.9 hPa | 0 mm | - | 332 W/m² | - |
| 1778067098 | 3.89° C | 97% | 1009.7 hPa | 0 mm | - | 178 W/m² | - |
| 1778065601 | 3.33° C | 97% | 1009.9 hPa | 0 mm | - | 239 W/m² | - |
| 1778065284 | 3.33° C | 97% | 1009.8 hPa | 0 mm | - | 90 W/m² | - |
| 1778064988 | 3.33° C | 97% | 1010.3 hPa | 0 mm | - | 163 W/m² | - |
| 1778064395 | 2.78° C | 97% | 1010.1 hPa | 1.02 mm | - | 128 W/m² | - |
| 1778063784 | 2.78° C | 97% | 1010 hPa | 3.05 mm | - | 121 W/m² | - |
| 1778063193 | 2.78° C | 97% | 1010.1 hPa | 6.1 mm | - | 88 W/m² | - |
| 1778062895 | 2.78° C | 97% | 1009.8 hPa | 7.87 mm | - | 67 W/m² | - |
| 1778062584 | 2.78° C | 97% | 1009.7 hPa | 10.92 mm | - | 63 W/m² | - |
| 1778062288 | 2.78° C | 97% | 1010.1 hPa | 13.97 mm | - | 70 W/m² | - |
| 1778061398 | 2.78° C | 97% | 1009.2 hPa | 23.11 mm | - | 70 W/m² | - |
| 1778060788 | 2.22° C | 97% | 1009.9 hPa | 27.94 mm | - | 63 W/m² | - |
| 1778060493 | 2.78° C | 97% | 1009.5 hPa | 26.92 mm | - | 165 W/m² | - |
| 1778060198 | 2.22° C | 97% | 1009.4 hPa | 24.89 mm | - | 58 W/m² | - |
| 1778059902 | 2.22° C | 97% | 1009.1 hPa | 23.11 mm | - | 42 W/m² | - |
| 1778059587 | 2.22° C | 97% | 1008.8 hPa | 22.1 mm | - | 70 W/m² | - |
| 1778059296 | 2.22° C | 97% | 1008.8 hPa | 21.08 mm | - | 56 W/m² | - |
| 1778059000 | 2.22° C | 97% | 1008.4 hPa | 18.03 mm | - | 49 W/m² | - |
* Rain latest hour (hover to see other rain measurements)
** Current wind speed in m/s (hover to see current wind gust speed)